Regional Weather Roundup
Issued by NWS Wakefield, VA

Home | Current Version | Previous Version | Text Only | Print | Product List | Glossary On
Versions: 1 2 3 4 5 6 7 8 9 10 11 12 13 14 15 16 17 18 19 20 21 22 23 24 25 26 27 28 29 30 31 32 33 34 35 36 37 38 39 40 41 42 43 44 45 46 47 48 49 50
000
ASUS41 KAKQ 011115
RWRAKQ

REGIONAL WEATHER ROUNDUP
NATIONAL WEATHER SERVICE WAKEFIELD VA
700 AM EDT WED JUL 01 2015

Note: "fair" indicates few or no clouds below 12,000 feet with no
significant weather and/or obstructions to visibility. * = Denotes
station may not report precipitation (e.g., rain,snow,etc.),
thunder or fog.

VAZ042-051-052>054-056-011200-
NORTHERN VIRGINIA

CITY           SKY/WX    TMP DP  RH WIND       PRES   REMARKS
WASH NATIONAL  PTSUNNY   71  67  87 VRB6      29.87R
DULLES         FOG       66  66 100 S6        29.87R VSB 1/2
FORT BELVOIR   CLOUDY    68  67  96 W2        29.87R
QUANTICO       PTSUNNY   68  65  90 W6        29.88R
FREDERICKSBRG* CLOUDY    69  69 100 CALM      29.87R
STAFFORD*      CLOUDY    66  65  97 CALM      29.92R FOG
WARRENTON      FOG       67  67 100 SW3       29.88R VSB 1/4
CULPEPER*      CLOUDY    65  65 100 CALM      29.89R
MANASSAS*      CLOUDY    68  68 100 CALM        N/A
LEESBURG*      MOSUNNY   66  66 100 CALM      29.88R FOG
WINCHESTER     SUNNY     68  64  88 SW6       29.88R
FRONT ROYAL*   FAIR      64  63  94 S7        29.88R
LURAY*         FAIR      66  64  94 CALM      29.91R
$$

VAZ048-049-060>072-079>083-011200-
CENTRAL AND SOUTH CENTRAL VIRGINIA

CITY           SKY/WX    TMP DP  RH WIND       PRES   REMARKS
RICHMOND       CLOUDY    69  67  93 SW6       29.89R FOG
CHESTERFIELD*  PTSUNNY   68  57  68 SW3       29.91R
PETERSBURG*    SUNNY     68  68 100 SW3       29.90S FOG
HANOVER        SUNNY     68  67  96 SW5       29.90R
TAPPAHANNOCK*  CLOUDY    69  66  89 SW5       29.89R FOG
QUINTON*       FAIR      68  67  97 W3        29.88R
CHARLOTTSVILLE SUNNY     65  60  84 S7        29.89R
GORDONSVILLE*  FAIR      64  64 100 CALM      29.88S FOG
ORANGE*        FOG       64  64 100 CALM      29.90R VSB 1/4
LOUISA*        SUNNY     66  64  94 CALM      29.88R FOG
BUMPASS*       PTSUNNY   65  65  99 CALM      29.88R
FARMVILLE*     SUNNY     65  65 100 CALM      29.91R
CREWE*         FAIR      67  66  96 W3        29.91R
FORT PICKETT*  FAIR      65  65  97 W3        29.92R
CHASE CITY*    FAIR      67  67 100 CALM      29.92R
CLARKSVILLE*   FAIR      63  63 100 CALM      29.93R
SOUTH HILL*    SUNNY     65  65  99 CALM      29.97S
LAWRENCEVILLE* NOT AVBL
EMPORIA*         N/A     66  66 100 CALM      29.92R FOG
$$

VAZ088>098-011200-
SOUTHEAST VIRGINIA

CITY           SKY/WX    TMP DP  RH WIND       PRES   REMARKS
NORFOLK        PTSUNNY   73  65  75 SW13      29.89R
VIRGINIA BEACH PTSUNNY   76  66  71 SW13      29.89R
NORFOLK NAVAL  MOSUNNY   72  66  81 SW12G18   29.91R
WEST POINT*    SUNNY     72  68  88 SW6       29.89R
SALUDA*        FAIR      69  67  94 MISG      29.88R
NEWPORT NEWS   MOSUNNY   71  68  90 SW10      29.89R
LANGLEY AFB    MOSUNNY   71  68  88 SW13      29.87R
FORT EUSTIS    MOSUNNY   70  70 100 SW7       29.87R
WILLIAMSBURG*  SUNNY     73  70  88 SW5       29.90R
HR EXEC AP*    FAIR      70  64  83 SW8       29.92R
FRANKLIN*      MOSUNNY   68  67  96 SW5       29.91R
WAKEFIELD      SUNNY     69  67  93 SW5       29.90R
$$

VAZ020-022-025-037-045-011200-
WEST CENTRAL AND SOUTHWEST VIRGINIA

CITY           SKY/WX    TMP DP  RH WIND       PRES   REMARKS
STAUNTON*      SUNNY     64  61  91 SW3       29.95R
WAYNESBORO*    NOT AVBL
HOT SPRINGS VA PTCLDY    56  56 100 W15       30.00R
LYNCHBURG      CLEAR     61  61 100 CALM      29.94R
DANVILLE       CLEAR     66  63  90 SW5       29.94R
SOUTH BOSTON*  FAIR      65  64  94 MISG      29.93R
MARTINSVILLE   CLEAR     63  63 100 CALM      29.98R FOG
ROANOKE        PTCLDY    63  60  90 W6        29.98R
BLACKSBURG     MOCLDY    59  59 100 CALM      30.03R FOG
DUBLIN*        CLOUDY    63  63 100 SW8       30.02R
MARION*        CLOUDY    65  63  93 W12       30.04R FOG
HILLSVILLE*    CLOUDY    61  59  94 S5        30.03R
RICHLANDS*     CLOUDY    62  62 100 SW6       30.04R FOG
WISE*          CLOUDY    61  61 100 SW6       30.04R FOG
ABINGDON*      CLOUDY    67  66  99 W3        30.03R FOG
$$

MDZ021>025-VAZ099-100-011200-
SOUTHERN MARYLAND AND THE DELMARVA PENINSULA

CITY           SKY/WX    TMP DP  RH WIND       PRES   REMARKS
PATUXENT RIVER PTSUNNY   70  68  93 W7        29.86R
BAY BRIDGE APT   N/A     68  68 100 SW6       29.85S
LEONARDTOWN    CLOUDY    68  66  94 SW5       29.88R
DOVER          MOSUNNY   67  67 100 S9        29.82R
GEORGETOWN     MOSUNNY   70  66  87 SW5       29.87R
EASTON         MOSUNNY   70  70 100 S3        29.89S
CAMBRIDGE      SUNNY     72  68  88 CALM      29.86S
SALISBURY      MOSUNNY   70  68  93 SW3       29.86R
OCEAN CITY     MOSUNNY   74  68  81 W8        29.86
WALLOPS ISLAND PTSUNNY   74  69  85 SW7       29.87R
ACCOMACK*      PTSUNNY   73  70  88 SW6       29.87R
$$

NCZ012>017-030>032-011200-
NORTH CENTRAL AND EASTERN NORTH CAROLINA

CITY           SKY/WX    TMP DP  RH WIND       PRES   REMARKS
ROANOKE RAPIDS FAIR      68  66  94 SW7       29.93R
RALEIGH        MOCLDY    70  66  88 SW6       29.95R FOG
ELIZABETH CITY MOSUNNY   75  67  76 SW7       29.90S
AHOSKIE*       SUNNY     67  66  97 CALM      29.92R FOG
EDENTON*       MOSUNNY   75  67  76 SW10G16   29.92R
CURRITUCK*     MOSUNNY   77  63  63 SW7       29.91R
KILL DEVIL HLS MOSUNNY   78  72  82 SW6       29.91S
MANTEO         MOSUNNY   77  73  87 SW9       29.93S
CAPE HATTERAS  LGT RAIN  73  70  90 SW13G20   29.95F
TARBORO*         N/A     70  67  90 SW6       29.94R
GOLDSBORO      CLOUDY    71  69  94 SW8       29.94R
WASHINGTON     SUNNY     72  66  82 SW8       29.93S
GREENVILLE     PTSUNNY   72  68  88 W9        29.96R
NEW BERN       SUNNY     73  67  81 SW8       29.96R
WILMINGTON     CLEAR     74  67  78 SW8       29.97R
$$

VAZ048-011200-
ELSEWHERE

CITY           SKY/WX    TMP DP  RH WIND       PRES   REMARKS
HARRISBURG PA  CLOUDY    68  63  84 NW3       29.81R
BALTIMORE      PTSUNNY   67  66  97 SW8       29.85R FOG
ANNAPOLIS      MOSUNNY   68  65  90 CALM      29.85R
ANDREWS AFB    PTSUNNY   67  66  99 SW7       29.86R
PHILADELPHIA   PTSUNNY   70  66  87 SW8       29.81R
HENDERSON NC   SUNNY     66  64  92 SW6       29.94R FOG
GREENSBORO     MOCLDY    67  65  93 W9        29.95R
ROCKY MOUNT    CLOUDY    71  68  90 SW8       29.94R
$$

VAZ100-011200-
MARINE

STATION/POSITION TIME  TEMP    WIND        PRES    WAVE   SWELL
                       AIR SEA DIR/SP/G            HT/PER HT/PER
                 (UTC) (F)     (DEG/KT/KT) (MB)    (FT/S) (FT/S)
BRANDYWINE LGT   1000   72 73  260/ 16/ 19 1010.1R
CAPE MAY NJ      1000   73 76  250/ 12/ 14 1009.6R
LEWES DE         1000   70 69  230/  5/  6 1010.2R
15NM E FENWICK I 1050   73 71              1010.8R   4/ 6
OCEAN-CITY-INLET 1000   73 75  210/  6/  8 1010.6R
WACHAPREAGUE VA  1000   74 79  230/  4/  6 1011.3R
GOOSES REEF MD   1100   73 78  250/ 12/ 14 1011.9R
COVE POINT MD    1000   70     240/ 11/ 12 1011.4R
SOLOMONS ISLAND  1000      79                N/A
BISHOPS HEAD MD  1000   73     220/ 11/ 14 1010.7R
PINEY POINT MD   1012          260/  5/  8   N/A
CAMBRIDGE MD     1000   69 79  200/  3/  5 1010.6R
LEWISETTA VA     1000   70 80  240/  6/  8 1010.7R
RAPPAHANNOCK LGT 1000          230/ 19/ 24 1011.4R
STINGRAY PT      1100   73 80  260/ 12/ 16 1011.6R   1/ 3
YORK RVR RNG VA  1000   73     240/ 14/ 17 1010.5R
YORKTOWN VA      1000   72 80  240/ 11/ 14 1011.0R
JAMESTOWN VA     1100   70 82  230/ 10/ 12   N/A
DOMINION TERM VA 1000   73     240/ 15/ 19 1011.6R
KIPTOPEKE VA     1000      82  240/ 16/ 20   N/A
CHES BAY BRIDGE  1000   74 78  210/ 20/ 22 1010.9F
CHESAPEAKE LGHT  1000   76     220/ 18/ 20 1012.1F
WILLOUBY STN VA  1006   72     220/ 15/ 18 1012.4R
CAPE HENRY BUOY  1028      77                N/A     3/ 6
1ST LANDING BUOY 1100      77              1011.4R   2/ 3
CAPE CHARLES BUO 1026      72                N/A     3/ 8   2/ 8
OFFSHORE WE BUOY 1011      78                N/A     4/ 8   2/ 8
64NM E OF VA BCH 1050   78 76  210/ 14/ 16 1012.4R   5/ 7   3/ 7
DUCK PIER NC     1000   78 61  230/ 16/ 20 1012.4R
44100 DUCK FRF   1024      76                N/A     3/ 7
44056 DUCK FRF   1011      65                N/A     2/ 8
OREGON INLET NC  1000   80 81  220/ 16/ 19 1013.1S
HATTERAS NC      1000   73 81  260/ 16/ 25 1014.0R
DIAMOND SHLS NC  1050   77 82  290/ 16/ 21 1014.1R   6/ 6   2/ 8
CAPE LOOKOUT NC  1100   79     260/ 15/ 17 1014.3R
$$


USA.gov is the U.S. government's official web portal to all federal, state and local government web resources and services.